Orangeburg, SC

12:09 AM EDT on March 26, 2017 (GMT -0400)
Orangeburg Municipal

Weather History for KOGB - December, 2013

Change the Weather History Date:

Friday, December 6, 2013

  Actual Average Record
Temperature  
Mean Temperature 72 °F 50 °F  
Max Temperature 81 °F 61 °F 81 °F (2013)
Min Temperature 62 °F 39 °F 23 °F (2010)
Degree Days  
Heating Degree Days 0 15  
Month to date heating degree days 31 87  
Since 1 July heating degree days 427 456  
Cooling Degree Days 7 0  
Month to date cooling degree days 7 0  
Year to date cooling degree days 2049 2102  
Growing Degree Days 21 (Base 50)    
Moisture  
Dew Point 63 °F    
Average Humidity 81    
Maximum Humidity 93    
Minimum Humidity 58    
Precipitation  
Precipitation 0.00 in 0.10 in 1.30 in (1972)
Month to date precipitation 0.70 0.77  
Year to date precipitation 51.86 44.18  
Sea Level Pressure  
Sea Level Pressure 30.10 in    
Wind  
Wind Speed 8 mph (SSW)    
Max Wind Speed 18 mph    
Max Gust Speed 23 mph    
Visibility 9 miles    
Events      
T = Trace of Precipitation, MM = Missing Value Source: NWS Daily Summary

Daily Weather History Graph

Daily Weather History Graph

Search for Another Location

Airport or City:

Trip Planner

Search our weather history database for the weather conditions in past years. The results will help you decide how hot, cold, wet, or windy it might be!

Date:

Astronomy

Dec. 06, 2013 Rise Set
Actual Time 7:13 AM EST 5:15 PM EST
Civil Twilight 6:46 AM EST 5:42 PM EST
Nautical Twilight 6:15 AM EST 6:13 PM EST
Astronomical Twilight 5:45 AM EST 6:43 PM EST
Moon 10:24 AM EST (12/6) 9:37 PM EST (12/6)
Length of Visible Light 10h 56m
Length of Day
10h 01m
Waxing Crescent, 19% of the Moon is Illuminated
Dec 6
Waxing Crescent
Dec 9
First Quarter
Dec 17
Full
Dec 25
Last Quarter
Jan 1
New

Hourly Weather History & Observations

Time (EST) Temp. Heat Index Dew Point Humidity Pressure Visibility Wind Dir Wind Speed Gust Speed Precip Events Conditions
12:53 AM 64.9 °F - 61.0 °F 87% 30.10 in 10.0 mi SSW 5.8 mph - N/A   Clear
1:53 AM 64.0 °F - 61.0 °F 90% 30.09 in 10.0 mi South 4.6 mph - N/A   Clear
2:53 AM 64.0 °F - 61.0 °F 90% 30.09 in 10.0 mi South 5.8 mph - N/A   Clear
3:53 AM 63.0 °F - 60.1 °F 90% 30.09 in 9.0 mi South 3.5 mph - N/A   Clear
4:53 AM 62.1 °F - 60.1 °F 93% 30.09 in 8.0 mi South 3.5 mph - N/A   Clear
5:53 AM 62.1 °F - 60.1 °F 93% 30.09 in 7.0 mi South 5.8 mph - N/A   Clear
6:53 AM 62.1 °F - 60.1 °F 93% 30.11 in 6.0 mi South 4.6 mph - N/A   Clear
7:53 AM 63.0 °F - 61.0 °F 93% 30.12 in 6.0 mi SSW 4.6 mph - N/A   Clear
8:53 AM 64.9 °F - 63.0 °F 93% 30.13 in 8.0 mi SSW 9.2 mph - N/A   Partly Cloudy
9:23 AM 66.9 °F - 64.0 °F 90% 30.14 in 10.0 mi SW 10.4 mph - N/A   Mostly Cloudy
9:53 AM 68.0 °F - 64.0 °F 87% 30.15 in 10.0 mi SSW 12.7 mph - N/A   Overcast
10:37 AM 70.0 °F - 64.9 °F 84% 30.16 in 10.0 mi SW 10.4 mph - N/A   Mostly Cloudy
10:53 AM 72.0 °F - 64.9 °F 78% 30.16 in 10.0 mi SSW 8.1 mph - N/A   Mostly Cloudy
11:00 AM 72.0 °F - 64.9 °F 78% 30.16 in 10.0 mi SW 16.1 mph - N/A   Scattered Clouds
11:53 AM 75.9 °F - 64.9 °F 69% 30.13 in 10.0 mi South 9.2 mph - N/A   Partly Cloudy
12:53 PM 79.0 °F - 64.9 °F 62% 30.10 in 10.0 mi SSW 11.5 mph - N/A   Partly Cloudy
1:53 PM 79.0 °F - 64.9 °F 62% 30.07 in 10.0 mi SW 13.8 mph - N/A   Scattered Clouds
2:53 PM 80.1 °F 81.7 °F 64.0 °F 58% 30.05 in 10.0 mi SW 12.7 mph - N/A   Partly Cloudy
3:53 PM 79.0 °F - 63.0 °F 58% 30.05 in 10.0 mi SSW 10.4 mph 19.6 mph N/A   Partly Cloudy
4:53 PM 77.0 °F - 64.0 °F 64% 30.06 in 10.0 mi SSW 5.8 mph - N/A   Partly Cloudy
5:53 PM 73.9 °F - 64.0 °F 71% 30.07 in 10.0 mi SSW 4.6 mph - N/A   Scattered Clouds
6:53 PM 72.0 °F - 64.9 °F 78% 30.07 in 10.0 mi South 5.8 mph - N/A   Clear
7:53 PM 71.1 °F - 66.0 °F 84% 30.08 in 10.0 mi South 8.1 mph - N/A   Clear
8:53 PM 70.0 °F - 64.9 °F 84% 30.07 in 10.0 mi South 10.4 mph - N/A   Clear
9:53 PM 69.1 °F - 64.9 °F 87% 30.07 in 10.0 mi South 8.1 mph - N/A   Clear
10:53 PM 68.0 °F - 64.0 °F 87% 30.09 in 10.0 mi South 5.8 mph - N/A   Clear
11:53 PM 68.0 °F - 64.0 °F 87% 30.08 in 10.0 mi SSW 6.9 mph - N/A   Clear